This is the latest recevied weather packets stored in our database for station/object K4AMF. If no packets are shown the sender has not sent any weather packets the latest 10 day(s).
| Time | Temp. | Humidity | Pressure | Rain* | Wind** | Luminosity | Snow |
|---|---|---|---|---|---|---|---|
| 1778161747 | 26.11° C | 76% | 1015.6 hPa | 0 mm | - | 503 W/m² | - |
| 1778161443 | 26.11° C | 76% | 1016 hPa | 0 mm | - | 497 W/m² | - |
| 1778161139 | 26.11° C | 76% | 1016 hPa | 0 mm | - | 511 W/m² | - |
| 1778160835 | 26.11° C | 76% | 1016.1 hPa | 0 mm | - | 519 W/m² | - |
| 1778160534 | 25.56° C | 78% | 1015.8 hPa | 0 mm | - | 498 W/m² | - |
| 1778160229 | 25° C | 79% | 1015.9 hPa | 0 mm | - | 473 W/m² | - |
| 1778159927 | 25° C | 79% | 1015.9 hPa | 0 mm | - | 414 W/m² | - |
| 1778159623 | 24.44° C | 81% | 1016.1 hPa | 0 mm | - | 345 W/m² | - |
| 1778159320 | 24.44° C | 81% | 1016.1 hPa | 0 mm | - | 244 W/m² | - |
| 1778159017 | 24.44° C | 81% | 1016 hPa | 0 mm | - | 284 W/m² | - |
| 1778158711 | 23.89° C | 83% | 1016.1 hPa | 0 mm | - | 172 W/m² | - |
| 1778158408 | 23.33° C | 83% | 1016.2 hPa | 0 mm | - | 131 W/m² | - |
| 1778158105 | 23.33° C | 85% | 1016.1 hPa | 0 mm | - | 116 W/m² | - |
| 1778157801 | 23.33° C | 85% | 1016 hPa | 0 mm | - | 109 W/m² | - |
| 1778157500 | 22.78° C | 86% | 1015.8 hPa | 0 mm | - | 99 W/m² | - |
| 1778157197 | 22.78° C | 87% | 1015.7 hPa | 0 mm | - | 102 W/m² | - |
| 1778156893 | 22.78° C | 88% | 1015.4 hPa | 0 mm | - | 112 W/m² | - |
| 1778156588 | 22.78° C | 88% | 1015.5 hPa | 0 mm | - | 110 W/m² | - |
| 1778156284 | 22.22° C | 89% | 1015.3 hPa | 0 mm | - | 97 W/m² | - |
| 1778155975 | 22.22° C | 89% | 1015.4 hPa | 0 mm | - | 86 W/m² | - |
| 1778155671 | 22.22° C | 89% | 1015.2 hPa | 0 mm | - | 88 W/m² | - |
| 1778155368 | 22.22° C | 89% | 1015.3 hPa | 0 mm | - | 88 W/m² | - |
| 1778155064 | 22.22° C | 89% | 1015.4 hPa | 0 mm | - | 79 W/m² | - |
| 1778154760 | 22.22° C | 89% | 1015.5 hPa | 0 mm | - | 70 W/m² | - |
| 1778154456 | 22.22° C | 90% | 1015.7 hPa | 0 mm | - | 62 W/m² | - |
* Rain latest hour (hover to see other rain measurements)
** Current wind speed in m/s (hover to see current wind gust speed)